User: anonymous   Login
Location: Unspecified
(0.0000°N, 0.0000°E)
Time: 17:46:44
(UTC+00:00)
Language:

NATO 4A - Orbit

View from above orbital plane
View from above orbital plane
View from above satellite
View from above satellite

Ground track
Ground track

The orbit data is extracted from the following two-line orbital elements,

1 21047U 91001A   17085.78635925 -.00000068 +00000-0 +00000-0 0  9996
2 21047 013.0394 017.9664 0002923 201.0870 348.7611 00.98282741095008
Epoch (UTC): 26 March 2017 18:52:21
Eccentricity: 0.0002923
inclination: 13.0394°
perigee height: 36341 km
apogee height: 36365 km
right ascension of ascending node: 17.9664°
argument of perigee: 201.0870°
revolutions per day: 0.98282741
mean anomaly at epoch: 348.7611°
orbit number at epoch: 9500

The dashed part of the orbit path shows where the satellite is in the earth's shadow,  

DLR